[[{"header":{"parameterUnit":"m.s-1","parameterCategory":1,"la1":30.2991,"la2":30.254,"lo1":-89.0895,"lo2":-89.0444,"dy":0.0017,"dx":0.0017,"nx":28,"ny":28,"refTime":"2026-02-06T09:00:00:Z","depth":0,"parameterNumber":2,"parameterNumberName":"U-component_of_WINDS"},"data":[0,0,0,0,0,0,0,0,0,0,0,0,0,0,0,0,0,0,0,0,0,0,0,0,0,0,0,0,0,0,0,0,0,0,0,0,0,0,0,0,0,0,0,0,0,0,0,0,0,0,0,0,0,0,0,0,0,0,6.4307,6.4308,0,6.4392,6.4393,6.4394,6.4281,6.4276,6.4272,6.4268,6.4362,6.4368,6.4374,0,0,0,0,0,0,0,0,0,0,0,0,0,6.4055,6.406,6.4307,6.4308,6.4309,6.4392,6.4393,6.4394,6.4281,6.4276,6.4271,6.4267,6.4359,6.4367,6.4374,0,0,0,0,0,0,0,0,0,0,0,0,0,6.4155,6.4062,6.4307,6.4263,6.426,6.4391,6.4393,6.4394,6.4282,6.4276,6.427,6.4264,6.4357,6.4366,6.4375,6.4557,0,0,6.4404,6.4408,0,0,0,0,0,0,0,0,6.4149,6.4164,6.4268,6.4266,6.4263,6.4319,6.4338,6.4449,6.4284,6.4274,6.4268,6.4261,6.4353,6.4362,6.4392,6.4561,6.4565,6.4405,6.4411,6.4415,6.4418,0,0,0,0,0,0,0,6.4143,6.416,6.4341,6.427,6.4267,6.4241,6.4248,6.4359,6.4347,6.4274,6.4266,6.4277,6.435,6.4383,6.4393,6.4566,6.4405,6.4413,6.4419,6.4423,6.4893,6.4899,0,0,0,0,0,0,6.414,6.4155,6.4338,6.4343,6.4189,6.4251,6.4259,6.4307,6.4345,6.4345,6.4283,6.4272,6.437,6.4382,6.4396,6.4613,6.4415,6.4424,6.4429,6.4886,6.4894,6.4902,0,0,0,0,0,0,6.4135,6.4157,6.4335,6.4247,6.4268,6.4261,6.4317,6.4312,6.4345,6.4352,6.435,6.4318,6.4365,6.4383,6.4518,6.4615,6.4428,6.4437,6.4878,6.4888,6.4898,6.5048,0,0,0,0,0,0,6.4128,6.4156,6.4223,6.4249,6.4273,6.4453,6.4323,6.4318,6.4361,6.4347,6.4384,6.4384,6.4362,6.4505,6.4527,6.4624,6.4444,6.4869,6.4883,6.4895,6.5034,6.5062,6.5085,0,0,0,0,0,6.412,6.4262,6.4227,6.425,6.4356,6.4459,6.4473,6.4442,6.4369,6.4438,6.4442,6.4383,6.46,6.4519,6.4544,6.4645,6.4863,6.4879,6.4894,6.5023,6.5056,6.5085,0,0,0,0,0,0,6.4249,6.4265,6.4226,6.4381,6.4419,6.4439,6.4525,6.4478,6.454,6.4525,6.4487,6.4496,6.4641,6.4656,6.4566,6.4825,6.472,6.4741,6.4809,6.4842,6.4867,6.4861,6.4452,0,0,0,0,0,6.4295,6.4375,6.4386,6.4522,6.4543,6.4531,6.4575,6.4548,6.4587,6.4604,6.4618,6.4661,6.4738,6.479,6.4862,6.5035,6.5044,6.5118,6.5143,6.5164,6.5184,6.528,6.5314,6.4952,6.4952,6.4952,0,0,6.4392,6.4411,6.4464,6.4548,6.4575,6.4662,6.4546,6.4641,6.4707,6.4619,6.4747,6.476,6.4805,6.4961,6.503,6.4978,6.5285,6.5184,6.5201,6.5209,6.5299,6.5334,6.5364,6.4962,6.496,6.4959,0,0,6.4613,6.4634,6.4751,6.478,6.4822,6.4814,6.4842,6.487,6.4875,6.5003,6.494,6.5018,6.5152,6.5188,6.5223,6.5462,6.5411,6.5486,6.5621,6.5715,6.5744,6.5769,6.5857,6.5888,6.5505,6.5505,6.5506,0,6.4729,6.4855,6.4817,6.4919,6.496,6.4883,6.5003,6.5034,6.5098,6.5129,6.5069,6.5238,6.5262,6.5427,6.5486,6.5516,6.555,6.5482,6.5742,6.5767,6.579,6.5874,6.5906,6.5514,6.5513,6.5513,6.5512,0,6.4997,6.5086,6.5176,6.5238,6.5289,6.5399,6.5382,6.5438,6.5408,6.5407,6.5541,6.5568,6.5645,6.5682,6.5653,6.5844,6.5811,6.5748,6.5642,6.5834,6.5912,6.5944,6.5527,6.5524,6.5522,6.5519,0,0,6.5301,6.5343,6.5377,6.5406,6.5448,6.5517,6.5626,6.57,6.575,6.5798,6.589,6.6007,6.5949,6.599,6.5965,6.6047,6.6238,6.5974,6.5975,6.6024,6.6454,6.6503,6.654,6.6204,6.621,6.6215,6.6451,0,6.5524,6.5709,6.5681,6.5861,6.5945,6.5875,6.597,6.6008,6.601,6.6084,6.6087,6.6172,6.6087,6.6112,6.619,6.6198,6.6325,6.6181,6.6293,6.6297,6.6285,6.658,6.6631,6.6853,6.6481,6.6486,6.649,0,6.5809,6.5866,6.6055,6.6086,6.612,6.6206,6.6274,6.6344,6.6386,6.6383,6.643,6.6391,6.6503,6.6394,6.655,6.6453,6.6497,6.6509,6.6517,6.6527,6.6406,6.6601,6.6922,6.6957,6.6537,6.6533,6.653,0,6.6015,6.614,6.6269,6.6296,6.6335,6.6398,6.6417,6.6454,6.6501,6.6561,6.6592,6.6665,6.6706,6.6764,6.6748,6.667,6.6909,6.6798,6.6911,6.6912,6.6966,6.6963,6.7301,6.6992,6.6991,6.6991,6.699,0,6.6268,6.6387,6.6363,6.6443,6.6576,6.6543,6.6676,6.6687,6.6721,6.6804,6.6748,6.6828,6.68,6.6879,6.6867,6.7,6.7018,6.7021,6.7016,6.7027,6.7027,6.7056,6.7041,6.6999,6.6997,6.6996,6.6994,0,6.6521,6.6509,6.6647,6.6673,6.6682,6.6779,6.6803,6.688,6.6878,6.6985,6.7008,6.7007,6.7098,6.7087,6.7188,6.718,6.7346,6.7322,6.7332,6.7327,6.7442,6.7432,6.7812,6.7861,6.7519,6.7522,6.7525,0,6.6684,6.6774,6.681,6.6862,6.6886,6.6968,6.7017,6.6989,6.7042,6.7099,6.7171,6.7256,6.7323,6.7472,6.7482,6.756,6.7539,6.7667,6.7551,6.756,6.7544,6.754,6.755,6.7691,6.7695,6.7698,6.77,0,6.6976,6.6966,6.7037,6.7108,6.7167,6.7221,6.727,6.7316,6.7293,6.7356,6.7448,6.75,6.7604,6.7691,6.7765,6.7788,6.7743,6.7737,6.7768,6.778,6.7782,6.7785,6.7396,6.7728,6.7726,6.7724,6.7722,6.7721,6.7191,6.7268,6.7307,6.7389,6.7422,6.747,6.7544,6.7553,6.7628,6.7709,6.7689,6.7794,6.7837,6.7932,6.7963,6.8046,6.8,6.8044,6.8056,6.8068,6.8082,6.7768,6.806,6.8059,6.8058,6.8057,6.8057,0,6.7481,6.7503,6.7579,6.7649,6.7714,6.7663,6.7716,6.7775,6.7867,6.791,6.7978,6.8085,6.817,6.8187,6.8268,6.8332,6.8314,6.8355,6.8351,6.8357,6.8118,6.8084,6.8369,6.8369,6.8369,6.8369,6.8368,6.8368,6.764,6.777,6.7766,6.7914,6.7934,6.8035,6.807,6.8115,6.815,6.8272,6.8341,6.8351,6.8386,6.847,6.8546,6.8549,6.8583,6.8633,6.8629,6.8405,6.8374,6.8344,6.8312,6.8641,6.8641,6.8862,6.8864,6.8865]},{"header":{"parameterUnit":"m.s-1","parameterCategory":1,"la1":30.2991,"la2":30.254,"lo1":-89.0895,"lo2":-89.0444,"dy":0.0017,"dx":0.0017,"nx":28,"ny":28,"refTime":"2026-02-06T09:00:00:Z","depth":0,"parameterNumber":3,"parameterNumberName":"V-component_of_WINDS"},"data":[0,0,0,0,0,0,0,0,0,0,0,0,0,0,0,0,0,0,0,0,0,0,0,0,0,0,0,0,0,0,0,0,0,0,0,0,0,0,0,0,0,0,0,0,0,0,0,0,0,0,0,0,0,0,0,0,0,0,0.3229,0.323,0,0.3346,0.3347,0.3349,0.3387,0.3386,0.3386,0.3385,0.3507,0.3511,0.3515,0,0,0,0,0,0,0,0,0,0,0,0,0,0.3039,0.3042,0.3229,0.323,0.3232,0.3346,0.3348,0.3349,0.3387,0.3386,0.3386,0.3385,0.3506,0.3511,0.3515,0,0,0,0,0,0,0,0,0,0,0,0,0,0.3135,0.3043,0.3229,0.3264,0.3269,0.3346,0.3348,0.335,0.3387,0.3386,0.3386,0.3385,0.3505,0.351,0.3516,0.3566,0,0,0.3533,0.3535,0,0,0,0,0,0,0,0,0.313,0.3142,0.3258,0.3262,0.3267,0.3351,0.3325,0.3422,0.3387,0.3342,0.3385,0.3385,0.3456,0.3466,0.3489,0.3572,0.3577,0.3533,0.3537,0.3539,0.3541,0,0,0,0,0,0,0,0.3123,0.3137,0.3275,0.3259,0.3265,0.3275,0.3288,0.3344,0.3402,0.3346,0.3349,0.3362,0.3459,0.3484,0.3493,0.3579,0.3533,0.3538,0.3541,0.3544,0.3706,0.3707,0,0,0,0,0,0,0.311,0.3131,0.3272,0.3279,0.3195,0.3279,0.3293,0.3325,0.3402,0.3413,0.3363,0.3364,0.3475,0.3486,0.3497,0.356,0.3539,0.3544,0.3547,0.3705,0.3706,0.3707,0,0,0,0,0,0,0.3106,0.3122,0.3267,0.3206,0.3225,0.3283,0.3318,0.3328,0.3353,0.3414,0.3425,0.3378,0.3475,0.3489,0.3548,0.3564,0.3547,0.3552,0.3704,0.3705,0.3706,0.3686,0,0,0,0,0,0,0.31,0.312,0.314,0.3206,0.3228,0.3316,0.3319,0.3331,0.3362,0.3365,0.3431,0.3442,0.3475,0.3539,0.3553,0.3572,0.3556,0.3702,0.3704,0.3706,0.3685,0.3686,0.3687,0,0,0,0,0,0.3093,0.313,0.3141,0.3158,0.3254,0.3317,0.3329,0.3366,0.3364,0.3384,0.3423,0.344,0.356,0.3545,0.3561,0.3582,0.3702,0.3704,0.3706,0.3685,0.3686,0.3687,0,0,0,0,0,0,0.3066,0.314,0.3152,0.3212,0.3257,0.3323,0.335,0.3367,0.3415,0.3415,0.3459,0.3474,0.3529,0.3561,0.3543,0.3633,0.3632,0.3637,0.361,0.3612,0.3613,0.3604,0.3561,0,0,0,0,0,0.3067,0.3111,0.3173,0.322,0.3242,0.3291,0.332,0.3345,0.3394,0.3414,0.3457,0.3505,0.3553,0.3584,0.3633,0.369,0.3704,0.3712,0.3713,0.3713,0.3717,0.3749,0.3752,0.3714,0.3714,0.3714,0,0,0.3069,0.3115,0.314,0.3215,0.3254,0.3298,0.3308,0.3355,0.3389,0.3421,0.3479,0.3512,0.3568,0.3626,0.3653,0.3654,0.3731,0.3716,0.3716,0.372,0.3751,0.3755,0.3758,0.3715,0.3715,0.3715,0,0,0.3096,0.3136,0.3178,0.3215,0.3273,0.3305,0.3315,0.3378,0.3401,0.3459,0.3484,0.3524,0.3607,0.3645,0.3676,0.3715,0.3732,0.3729,0.3735,0.3764,0.3767,0.377,0.3783,0.3788,0.3733,0.3733,0.3733,0,0.3092,0.316,0.3198,0.3243,0.3275,0.3305,0.3348,0.3383,0.3453,0.3474,0.3474,0.3577,0.3618,0.3684,0.3693,0.3717,0.3729,0.3722,0.3764,0.3767,0.377,0.3783,0.3788,0.3733,0.3733,0.3733,0.3733,0,0.3152,0.3199,0.3226,0.3291,0.3326,0.3371,0.3414,0.3445,0.3466,0.3498,0.3556,0.3605,0.3663,0.368,0.3702,0.3749,0.3748,0.3755,0.3755,0.3773,0.3785,0.3791,0.3731,0.3732,0.3732,0.3732,0,0,0.3166,0.325,0.326,0.3289,0.3354,0.3391,0.3435,0.3491,0.3516,0.3563,0.3601,0.3669,0.3676,0.371,0.3736,0.3762,0.3788,0.3767,0.3768,0.3768,0.3843,0.3836,0.3841,0.38,0.3801,0.3802,0.3837,0,0.3201,0.3282,0.3316,0.3381,0.3424,0.3452,0.3491,0.3535,0.3566,0.3607,0.3641,0.3688,0.3694,0.3715,0.3742,0.3779,0.3804,0.3777,0.3836,0.3837,0.382,0.3848,0.3842,0.3874,0.3843,0.3844,0.3844,0,0.3253,0.3299,0.3368,0.3425,0.3444,0.3479,0.3531,0.357,0.362,0.364,0.3677,0.3701,0.3749,0.3744,0.381,0.3791,0.3817,0.3839,0.3841,0.3848,0.3842,0.3855,0.3885,0.3889,0.3853,0.3852,0.3852,0,0.3255,0.3334,0.3385,0.341,0.3478,0.3501,0.3531,0.358,0.361,0.3656,0.3676,0.3727,0.3755,0.3794,0.3831,0.3825,0.3893,0.3892,0.3911,0.391,0.3924,0.3923,0.3958,0.3941,0.3941,0.3941,0.3941,0,0.3291,0.3331,0.3387,0.3418,0.3465,0.3503,0.3548,0.358,0.3622,0.366,0.3688,0.3723,0.3769,0.381,0.3839,0.3888,0.3901,0.3919,0.3926,0.3916,0.3914,0.3934,0.3932,0.3942,0.3942,0.3942,0.3941,0,0.3301,0.334,0.3397,0.3457,0.3473,0.3504,0.3555,0.3586,0.3618,0.3665,0.3678,0.3728,0.3777,0.3817,0.3882,0.3902,0.3953,0.3961,0.3936,0.394,0.3956,0.3953,0.4005,0.4013,0.3991,0.3991,0.3991,0,0.3321,0.3353,0.3415,0.3442,0.3471,0.3514,0.3545,0.3583,0.3614,0.3672,0.3696,0.3747,0.3789,0.3866,0.3908,0.3957,0.3967,0.3981,0.3975,0.3963,0.3966,0.3964,0.3967,0.3982,0.3982,0.3982,0.3982,0,0.3351,0.3369,0.3412,0.3461,0.3496,0.3537,0.3579,0.3599,0.3645,0.3679,0.3728,0.3761,0.3826,0.3876,0.3929,0.396,0.3979,0.3984,0.3991,0.3981,0.3964,0.3973,0.3937,0.3983,0.3983,0.3983,0.3983,0.3983,0.3367,0.3396,0.3444,0.349,0.3525,0.3563,0.3595,0.3629,0.3671,0.3727,0.3747,0.3798,0.3845,0.3918,0.3949,0.3989,0.3991,0.4001,0.4004,0.4006,0.4004,0.3958,0.3999,0.3999,0.3999,0.3999,0.3999,0,0.3398,0.343,0.3472,0.3529,0.3565,0.3578,0.3624,0.3654,0.3698,0.374,0.3781,0.3837,0.3885,0.393,0.398,0.4003,0.4013,0.4015,0.4014,0.402,0.4,0.3988,0.4006,0.4006,0.4006,0.4006,0.4006,0.4006,0.3419,0.3468,0.349,0.3557,0.3589,0.3638,0.3663,0.3698,0.3731,0.3793,0.3832,0.3861,0.3904,0.3957,0.4001,0.4013,0.403,0.4029,0.4043,0.4023,0.4022,0.4021,0.401,0.4033,0.4033,0.4061,0.4061,0.4061]}]]